Tracking 22459 objects as of 3-Mar-2021
HD Live streaming from Space Station
objects crossing your sky now

TITAN 3C TRANSTAGE DEB

Track TITAN 3C TRANSTAGE DEB now!


NORAD ID: 26528
Int'l Code: 1965-108AP
Perigee: 931.9 km
Apogee: 30,115.5 km
Inclination: 27.6 °
Period: 537.4 minutes
Semi major axis: 21894 km
RCS: 0.117 m2 (medium)
Launch date: December 21, 1965
Source: United States (US)
Launch site: AIR FORCE EASTERN TEST RANGE (AFETR)

Note: This is SATELLITE DEBRIS
aabbcc
Your satellite tracking list
Your tracking list is empty




NASA's NSSDC Master Catalog

Two Line Element Set (TLE):
1 26528U 65108AP  21062.05667420  .00000154  00000-0  12959-1 0  9991
2 26528  27.5964 313.9067 6664540 143.6519   1.6654  2.67975636217112
Source of the keplerian elements: AFSPC